Location: Unspecified
(41.5516°N, 88.1098°W)
Time: 23:22:36
(UTC-05:00)

Hubble Space Telescope - Visible Passes

Search period start: 22 October 2017 00:00
Search period end: 01 November 2017 00:00
Orbit: 537 x 541 km, 28.5° (Epoch: 22 October)

Date Brightness Start Highest point End Pass type
(mag) Time Alt. Az. Time Alt. Az. Time Alt. Az.
23 Oct 3.3 18:57:11 10° S 18:57:54 10° SSE 18:58:35 10° SSE visible
24 Oct 3.2 18:46:11 10° S 18:47:34 11° S 18:48:56 10° SSE visible
24 Oct 3.6 20:26:06 10° SSW 20:26:15 10° SSW 20:26:15 10° SSW visible
25 Oct 3.2 18:35:31 10° SSW 18:37:14 12° S 18:38:56 10° SSE visible
25 Oct 3.4 20:15:58 10° SSW 20:16:38 11° SSW 20:16:38 11° SSW visible
26 Oct 3.2 18:25:01 10° SSW 18:26:55 13° S 18:28:48 10° SSE visible
26 Oct 3.4 20:06:00 10° SSW 20:07:03 11° SSW 20:07:03 11° SSW visible
27 Oct 3.4 19:56:29 10° SSW 19:56:59 10° SSW 19:57:29 10° S visible
